Location: Newark
(48.4472°N, 1.4892°E)
Time: 13:37:37
(UTC+00:00)

Transit 4A - Pass Details

Date: 25 November 2019
Orbit: 870 x 975 km, 66.8° (Epoch: 09 December)

Event Time Altitude Azimuth Distance (km) Brightness Sun altitude
Exits shadow 02:48:06 17° 50° (NE) 2,081 10.2 -43.5°
Drops below altitude 10° 02:50:24 10° 72° (ENE) 2,539 10.8 -43.2°
Sets 02:53:35 0° 89° (E) 3,465 11.6 -42.7°
